1484254800.29,53919,5.75,72080.5,-13.27,-38.61,-38.55,0,*67
1484254801.53,53920,5.75,72084.8,-13.25,-38.73,-38.61,0,*6B
1484254802.82,53921,5.75,72084.8,-13.25,-38.79,-38.79,0,*69
1484254804.09,53922,5.75,72086.5,-13.27,-38.91,-38.91,0,*68
1484254805.37,53923,5.75,72086.5,-13.27,-38.79,-38.79,0,*69
1484254806.61,53924,5.75,72086.0,-13.27,-38.73,-38.79,0,*64
1484254807.85,53925,5.75,72092.5,-13.25,-38.97,-39.09,0,*6B
1484254809.12,53926,5.75,72088.3,-13.27,-38.91,-38.91,0,*6C
1484254810.42,53927,5.75,72086.8,-13.25,-38.79,-38.91,0,*69
1484254811.65,53928,5.81,72092.0,-13.25,-38.97,-38.97,0,*60
1484254812.9,53929,5.75,72088.3,-13.27,-38.79,-38.61,0,*6A
1484254814.17,53930,5.75,72082.0,-13.25,-38.73,-38.79,0,*63
1484254815.41,53931,5.81,72080.8,-13.27,-38.73,-38.79,0,*60
1484254816.66,53932,5.81,72076.0,-13.25,-38.55,-38.61,0,*6C
1484254817.9,53933,5.75,72080.8,-13.27,-38.55,-38.49,0,*65
1484254819.15,53934,5.75,72078.0,-13.27,-38.61,-38.49,0,*65
1484254820.42,53935,5.75,72078.8,-13.25,-38.49,-38.61,0,*66
1484254821.67,53936,5.75,72072.5,-13.25,-38.55,-38.61,0,*68
1484254822.94,53937,5.75,72078.5,-13.25,-38.55,-38.49,0,*63
1484254824.18,53938,5.81,72074.8,-13.27,-38.79,-38.97,0,*63
1484254825.48,53939,5.75,72072.0,-13.25,-38.79,-38.91,0,*66
1484254826.75,53940,5.75,72068.5,-13.25,-38.79,-38.97,0,*6E
1484254828.01,53941,5.75,72072.0,-13.25,-38.73,-38.91,0,*63
1484254829.3,53942,5.75,72074.3,-13.25,-38.79,-38.91,0,*6A
1484254830.58,53943,5.75,72084.0,-13.27,-38.79,-38.91,0,*69
1484254831.82,53944,5.81,72080.5,-13.25,-38.55,-38.55,0,*6A
1484254833.09,53945,5.75,72078.3,-13.25,-38.17,-38.29,0,*66
1484254834.35,53946,5.81,72078.5,-13.27,-38.17,-38.29,0,*67
1484254835.62,53947,5.75,72072.8,-13.25,-38.29,-38.55,0,*62
1484254836.89,53948,5.75,72070.8,-13.25,-38.29,-38.35,0,*6B
1484254838.16,53949,5.75,72070.3,-13.23,-38.11,-38.29,0,*6A
1484254839.4,53950,5.75,72070.5,-13.25,-38.17,-38.35,0,*6F
1484254840.68,53951,5.75,72064.5,-13.25,-38.29,-38.35,0,*63
1484254841.94,53952,5.75,72060.8,-13.21,-38.55,-38.49,0,*64
1484254843.21,53953,5.75,72060.5,-13.21,-38.29,-38.43,0,*64
1484254844.43,53954,5.75,72066.0,-13.23,-38.73,-38.85,0,*64
1484254845.66,53955,5.75,72072.3,-13.21,-38.73,-38.73,0,*6E
1484254846.87,53956,5.81,72080.5,-13.23,-38.73,-38.73,0,*6F
1484254848.12,53957,5.81,72090.0,-13.23,-38.23,-38.43,0,*68
1484254849.36,53958,5.81,72094.5,-13.23,-38.11,-38.55,0,*61
1484254850.58,53959,5.75,72088.0,-13.23,-38.55,-38.55,0,*60
1484254851.82,53960,5.81,72090.5,-13.25,-38.55,-38.55,0,*6C
1484254853.12,53961,5.75,72090.0,-13.25,-38.79,-38.91,0,*6B
1484254854.38,53962,5.81,72092.5,-13.25,-38.73,-38.79,0,*64
1484254855.65,53963,5.75,72088.3,-13.25,-38.73,-38.91,0,*63
1484254856.91,53964,5.81,72090.8,-13.25,-38.79,-38.97,0,*68
1484254858.18,53965,5.81,72088.0,-13.25,-38.79,-38.97,0,*69
1484254859.42,53966,5.75,72090.5,-13.25,-38.97,-39.09,0,*6C
1484254860.66,53967,5.81,72084.0,-13.25,-38.97,-38.97,0,*6B
1484254861.92,53968,5.75,72080.3,-13.25,-38.91,-38.97,0,*62
1484254863.16,53969,5.81,72082.0,-13.25,-38.97,-39.09,0,*63
1484254864.39,53970,5.81,72076.0,-13.27,-39.09,-39.09,0,*6F
1484254865.65,53971,5.81,72082.3,-13.25,-38.91,-39.09,0,*6C
1484254866.95,53972,5.81,72084.5,-13.25,-38.79,-38.91,0,*69
1484254868.19,53973,5.81,72086.8,-13.27,-38.97,-38.91,0,*6A
1484254869.4,53974,5.75,72078.5,-13.27,-38.97,-38.97,0,*6B
1484254870.65,53975,5.81,72080.8,-13.27,-38.97,-38.91,0,*6C
1484254871.91,53976,5.75,72080.0,-13.25,-38.79,-38.97,0,*6B
1484254873.15,53977,5.81,72084.0,-13.27,-38.91,-38.97,0,*6E
1484254874.42,53978,5.75,72088.0,-13.25,-38.97,-38.91,0,*63
1484254875.67,53979,5.81,72092.8,-13.27,-39.09,-38.91,0,*66
1484254876.92,53980,5.81,72092.5,-13.27,-38.79,-38.61,0,*69
1484254878.19,53981,5.75,72092.0,-13.27,-38.79,-38.79,0,*61
1484254879.41,53982,5.81,72096.0,-13.27,-38.97,-38.97,0,*62
1484254880.7,53983,5.75,72092.5,-13.25,-38.91,-38.79,0,*67
1484254881.95,53984,5.75,72090.8,-13.27,-38.79,-38.97,0,*64
1484254883.22,53985,5.75,72090.3,-13.27,-38.79,-38.91,0,*63
1484254884.46,53986,5.81,72088.5,-13.29,-38.73,-38.55,0,*6C
1484254885.71,53987,5.75,72072.8,-13.27,-38.55,-38.49,0,*6A
1484254886.98,53988,5.81,72082.5,-13.25,-38.61,-38.79,0,*63
1484254888.25,53989,5.81,72068.3,-13.25,-38.61,-38.49,0,*61
1484254889.52,53990,5.75,72050.5,-13.27,-38.79,-38.79,0,*61
1484254890.77,53991,5.75,72072.0,-13.27,-38.91,-38.97,0,*66
1484254892.04,53992,5.81,72082.8,-13.27,-38.91,-38.79,0,*65
1484254893.29,53993,5.75,72078.8,-13.27,-38.79,-38.97,0,*62
1484254894.5,53994,5.81,72088.3,-13.27,-38.97,-39.09,0,*63
1484254895.75,53995,5.75,72084.3,-13.27,-39.09,-39.15,0,*69
1484254897.0,53996,5.81,72086.3,-13.27,-39.15,-39.35,0,*65
1484254898.27,53997,5.81,72080.0,-13.25,-39.09,-39.15,0,*69
1484254899.51,53998,5.75,72086.3,-13.27,-38.91,-38.97,0,*6F
1484254900.73,53999,5.75,72086.3,-13.27,-38.97,-38.97,0,*68
1484254901.97,54000,5.81,72092.3,-13.27,-38.91,-38.97,0,*60
1484254903.21,54001,5.81,72094.8,-13.27,-38.91,-38.97,0,*61
1484254904.46,54002,5.81,72086.0,-13.27,-38.73,-38.79,0,*6E
1484254905.73,54003,5.75,72082.3,-13.29,-39.09,-39.15,0,*66
1484254906.96,54004,5.81,72098.8,-13.29,-38.97,-39.09,0,*6A
1484254908.21,54005,5.81,72098.3,-13.29,-39.09,-39.09,0,*6D
1484254909.47,54006,5.81,72092.3,-13.33,-38.97,-39.03,0,*69
1484254910.71,54007,5.81,72092.8,-13.29,-38.97,-38.97,0,*6F
1484254911.97,54008,5.81,72088.0,-13.29,-38.91,-38.97,0,*66
1484254913.26,54009,5.81,72084.3,-13.29,-38.91,-39.15,0,*6C
1484254914.56,54010,5.75,72080.0,-13.33,-39.15,-39.15,0,*62
1484254915.84,54011,5.75,72080.5,-13.29,-38.91,-39.03,0,*62
1484254917.09,54012,5.81,72080.5,-13.33,-38.85,-38.97,0,*63
1484254918.34,54013,5.75,72080.8,-13.33,-38.85,-38.85,0,*61
1484254919.58,54014,5.75,72086.8,-13.33,-38.97,-38.97,0,*66
1484254920.82,54015,5.81,72088.3,-13.33,-38.61,-38.61,0,*67
1484254922.09,54016,5.75,72092.5,-13.33,-38.23,-38.43,0,*62
1484254923.34,54017,5.75,72096.0,-13.33,-38.05,-38.35,0,*66
1484254924.61,54018,5.81,72098.0,-13.33,-38.23,-38.55,0,*6B
1484254925.83,54019,5.75,72094.3,-13.35,-38.43,-38.55,0,*6A
1484254927.07,54020,5.81,72096.3,-13.35,-37.87,-37.69,0,*67
1484254928.32,54021,5.75,72094.5,-13.35,-37.87,-38.23,0,*67
1484254929.54,54022,5.81,72092.0,-13.35,-38.43,-38.61,0,*65
1484254930.76,54023,5.75,72082.3,-13.35,-38.61,-38.55,0,*63
1484254932.03,54024,5.81,72088.5,-13.35,-37.63,-37.81,0,*6F
1484254933.27,54025,5.75,72086.5,-13.35,-38.23,-38.55,0,*63
1484254934.52,54026,5.81,72076.5,-13.35,-38.05,-37.99,0,*6B
1484254935.75,54027,5.75,72070.3,-13.37,-38.05,-38.05,0,*62
1484254936.99,54028,5.75,72062.8,-13.35,-37.99,-38.17,0,*66
1484254938.24,54029,5.81,72064.3,-13.33,-38.17,-38.35,0,*68
1484254939.51,54030,5.75,72064.3,-13.33,-38.23,-38.43,0,*66
1484254940.75,54031,5.81,72074.5,-13.33,-38.35,-38.35,0,*61
1484254942.0,54032,5.75,72074.0,-13.33,-38.35,-38.35,0,*62
1484254943.27,54033,5.75,72082.0,-13.33,-38.23,-38.35,0,*64
1484254944.54,54034,5.81,72082.0,-13.29,-38.29,-38.35,0,*62
1484254945.78,54035,5.75,72078.8,-13.29,-38.55,-38.55,0,*6E
1484254947.08,54036,5.75,72076.0,-13.29,-38.29,-38.29,0,*6D
1484254948.35,54037,5.75,72084.8,-13.29,-38.29,-38.17,0,*61
1484254949.59,54038,5.75,72078.8,-13.29,-38.55,-38.55,0,*63
1484254950.86,54039,5.75,72080.5,-13.29,-38.55,-38.49,0,*6F
1484254952.13,54040,5.75,72084.5,-13.29,-38.73,-38.79,0,*66
1484254953.37,54041,5.75,72082.8,-13.29,-38.55,-38.61,0,*6A
1484254954.64,54042,5.75,72082.3,-13.27,-38.79,-38.79,0,*60
1484254955.91,54043,5.75,72080.5,-13.27,-38.91,-38.91,0,*61
1484254957.16,54044,5.81,72090.0,-13.27,-38.91,-38.97,0,*60
1484254958.45,54045,5.75,72084.0,-13.29,-38.79,-38.91,0,*6F
1484254959.69,54046,5.75,72086.0,-13.33,-38.97,-38.97,0,*61
1484254960.98,54047,5.81,72084.5,-13.29,-38.91,-38.91,0,*6B
1484254962.27,54048,5.75,72076.0,-13.29,-38.79,-38.91,0,*62
1484254963.57,54049,5.75,72082.3,-13.29,-38.79,-38.91,0,*63
1484254964.81,54050,5.81,72084.8,-13.29,-38.61,-38.61,0,*6D
1484254966.05,54051,5.75,72080.5,-13.29,-38.55,-38.55,0,*6C
1484254967.32,54052,5.81,72082.5,-13.33,-38.67,-38.61,0,*62
1484254968.56,54053,5.81,72082.5,-13.29,-38.55,-38.61,0,*69
1484254969.8,54054,5.75,72078.3,-13.29,-38.55,-38.61,0,*6E
1484254971.07,54055,5.81,72090.3,-13.29,-38.55,-38.79,0,*66
1484254972.34,54056,5.81,72086.3,-13.33,-38.17,-38.23,0,*67
1484254973.61,54057,5.81,72078.8,-13.29,-37.63,-37.75,0,*6D
1484254974.88,54058,5.75,72072.5,-13.29,-37.45,-37.39,0,*6E
1484254976.09,54059,5.75,72064.5,-13.27,-37.57,-37.45,0,*69
1484254977.31,54060,5.75,72068.0,-13.27,-37.75,-37.75,0,*60
1484254978.58,54061,5.81,72070.3,-13.25,-37.57,-37.63,0,*64
1484254979.86,54062,5.75,72066.8,-13.27,-37.93,-37.99,0,*68
1484254981.14,54063,5.75,72062.0,-13.27,-37.99,-37.99,0,*63
1484254982.43,54064,5.81,72064.8,-13.25,-37.93,-37.93,0,*66
1484254983.67,54065,5.75,72076.3,-13.23,-37.57,-37.51,0,*67
1484254984.89,54066,5.81,72078.8,-13.23,-37.75,-37.87,0,*6F
1484254986.16,54067,5.75,72072.5,-13.23,-37.69,-37.69,0,*63
1484254987.43,54068,5.75,72072.8,-13.23,-37.39,-37.39,0,*6C
1484254988.67,54069,5.81,72080.3,-13.21,-36.55,-36.73,0,*6B
1484254989.89,54070,5.75,72082.8,-13.23,-36.97,-37.15,0,*6E
1484254991.14,54071,5.81,72088.0,-13.15,-36.61,-36.67,0,*67
1484254992.42,54072,5.81,72090.0,-13.15,-37.21,-37.21,0,*62
1484254993.66,54073,5.81,72080.5,-13.15,-37.63,-37.75,0,*64
1484254994.88,54074,5.75,72040.0,-13.15,-37.75,-37.75,0,*64
1484254996.12,54075,5.75,72052.5,-13.15,-37.63,-37.57,0,*62
1484254997.4,54076,5.81,72052.8,-13.15,-37.81,-37.81,0,*66
1484254998.66,54077,5.81,72064.8,-13.15,-38.11,-38.11,0,*67
1484254999.92,54078,5.75,72080.8,-13.15,-38.11,-38.11,0,*68
1484255001.16,54079,5.75,72090.0,-13.15,-37.75,-37.93,0,*61
1484255002.44,54080,5.75,72096.0,-13.13,-37.81,-38.17,0,*69
1484255003.68,54081,5.81,72092.0,-13.15,-37.99,-38.17,0,*67
1484255004.95,54082,5.81,72088.0,-13.15,-37.99,-37.99,0,*6D
1484255006.23,54083,5.81,72086.5,-13.15,-37.81,-37.99,0,*65
1484255007.47,54084,5.81,72086.3,-13.15,-38.11,-38.35,0,*6D
1484255008.69,54085,5.81,72080.3,-13.15,-38.35,-38.61,0,*6B
1484255009.91,54086,5.75,72074.5,-13.15,-38.43,-38.61,0,*69
1484255011.15,54087,5.81,72072.5,-13.15,-38.29,-38.61,0,*64
1484255012.4,54088,5.75,72072.0,-13.15,-38.35,-38.29,0,*6A
1484255013.62,54089,5.75,72064.3,-13.15,-38.55,-38.61,0,*61
1484255014.86,54090,5.81,72068.3,-13.15,-38.61,-38.79,0,*67
1484255016.07,54091,5.81,72068.8,-13.15,-38.43,-38.73,0,*6C
1484255017.29,54092,5.81,72066.8,-13.15,-38.61,-38.73,0,*6F
1484255018.5,54093,5.81,72058.5,-13.15,-38.55,-38.73,0,*69
1484255019.74,54094,5.81,72066.8,-13.15,-38.17,-38.29,0,*67
1484255020.96,54095,5.81,72074.5,-13.19,-38.35,-38.35,0,*67
1484255022.17,54096,5.81,72072.5,-13.15,-38.73,-38.73,0,*68
1484255023.42,54097,5.75,72074.0,-13.15,-38.35,-38.29,0,*64
1484255024.66,54098,5.81,72080.5,-13.19,-38.43,-38.67,0,*6C
1484255025.88,54099,5.81,72086.0,-13.19,-38.43,-38.43,0,*6B
1484255027.12,54100,5.81,72090.8,-13.19,-38.61,-38.67,0,*6C
1484255028.39,54101,5.81,72090.8,-13.19,-38.79,-38.79,0,*6B
1484255029.64,54102,5.81,72090.3,-13.19,-38.79,-38.85,0,*6B
1484255030.88,54103,5.81,72092.3,-13.23,-38.91,-39.09,0,*60
1484255032.17,54104,5.81,72098.0,-13.21,-39.03,-39.23,0,*67
1484255033.41,54105,5.81,72096.8,-13.23,-38.91,-39.09,0,*66
1484255034.68,54106,5.81,72100.0,-13.23,-38.91,-39.03,0,*6F
1484255035.89,54107,5.75,72096.8,-13.23,-38.73,-39.09,0,*68
1484255037.14,54108,5.75,72098.3,-13.23,-38.91,-39.09,0,*6B
1484255038.36,54109,5.81,72100.0,-13.23,-38.85,-39.09,0,*6F
1484255039.6,54110,5.81,72100.5,-13.23,-38.91,-39.09,0,*62
1484255040.82,54111,5.75,72096.8,-13.23,-38.55,-38.85,0,*6E
1484255042.03,54112,5.81,72102.8,-13.23,-38.55,-38.73,0,*64
1484255043.28,54113,5.81,72094.5,-13.23,-38.85,-39.03,0,*6E
1484255044.52,54114,5.81,72100.3,-13.23,-38.73,-38.91,0,*6A
1484255045.78,54115,5.81,72098.8,-13.25,-38.97,-39.15,0,*6A
1484255047.05,54116,5.81,72104.5,-13.25,-39.09,-39.15,0,*6F
1484255048.32,54117,5.81,72100.5,-13.25,-38.91,-39.09,0,*63
1484255049.58,54118,5.75,72094.8,-13.25,-38.97,-39.15,0,*67
1484255050.82,54119,5.81,72098.0,-13.25,-38.97,-39.09,0,*6B
1484255052.05,54120,5.75,72094.8,-13.25,-38.97,-38.97,0,*67
1484255053.32,54121,5.81,72094.8,-13.25,-38.73,-38.91,0,*6A
1484255054.56,54122,5.75,72094.3,-13.27,-38.55,-38.79,0,*69
1484255055.79,54123,5.81,72092.0,-13.27,-38.61,-38.61,0,*66
1484255057.03,54124,5.81,72094.8,-13.27,-38.73,-38.91,0,*6D
1484255058.26,54125,5.75,72094.5,-13.27,-39.09,-39.09,0,*60
1484255059.53,54126,5.81,72092.3,-13.27,-38.91,-39.15,0,*6E
1484255060.79,54127,5.75,72090.0,-13.29,-38.97,-39.15,0,*67
1484255062.02,54128,5.81,72088.3,-13.29,-38.97,-38.97,0,*63
1484255063.29,54129,5.81,72094.0,-13.29,-38.79,-38.97,0,*62
1484255064.56,54130,5.75,72090.0,-13.29,-38.79,-38.97,0,*6A
1484255065.83,54131,5.81,72092.3,-13.33,-39.03,-39.09,0,*6A
1484255067.09,54132,5.81,72094.8,-13.29,-38.97,-39.15,0,*63
1484255068.38,54133,5.81,72092.3,-13.33,-39.03,-39.23,0,*60
1484255069.67,54134,5.81,72092.8,-13.33,-38.67,-39.15,0,*61
1484255070.93,54135,5.75,72084.3,-13.33,-38.67,-38.97,0,*6B
1484255072.2,54136,5.81,72098.3,-13.33,-38.85,-39.23,0,*6A
1484255073.46,54137,5.75,72098.0,-13.33,-38.97,-39.29,0,*62
1484255074.75,54138,5.81,72094.0,-13.29,-38.91,-39.15,0,*6F
1484255076.02,54139,5.75,72094.5,-13.33,-38.85,-39.15,0,*60
1484255077.32,54140,5.75,72094.3,-13.33,-38.79,-39.03,0,*6A
1484255078.61,54141,5.75,72094.0,-13.33,-38.79,-39.03,0,*6B
1484255079.88,54142,5.75,72098.8,-13.33,-38.79,-38.97,0,*64
1484255081.14,54143,5.75,72100.5,-13.33,-38.67,-38.97,0,*6A
1484255082.41,54144,5.75,72098.3,-13.33,-38.67,-38.85,0,*6E
1484255083.67,54145,5.75,72094.3,-13.33,-38.67,-38.85,0,*6F
1484255084.93,54146,5.75,72092.0,-13.29,-38.73,-38.91,0,*67
1484255086.23,54147,5.81,72094.3,-13.33,-38.79,-39.03,0,*6D
1484255087.5,54148,5.81,72088.0,-13.33,-38.85,-39.03,0,*61
1484255088.79,54149,5.81,72082.3,-13.33,-39.03,-39.23,0,*6D
1484255090.05,54150,5.75,72086.5,-13.33,-39.23,-39.35,0,*60
1484255091.31,54151,5.81,72094.0,-13.33,-39.15,-39.35,0,*64
1484255092.59,54152,5.75,72088.3,-13.33,-38.85,-39.15,0,*6D
1484255093.82,54153,5.81,72094.0,-13.35,-38.97,-39.15,0,*69
1484255095.04,54154,5.75,72088.8,-13.35,-38.85,-38.97,0,*66
1484255096.26,54155,5.75,72086.3,-13.35,-38.61,-38.85,0,*6E
1484255097.53,54156,5.75,72086.8,-13.35,-38.79,-39.03,0,*6B
1484255098.79,54157,5.75,72090.0,-13.35,-38.67,-39.03,0,*65
1484255100.03,54158,5.75,72094.0,-13.35,-38.85,-39.15,0,*61
1484255101.3,54159,5.75,72092.0,-13.33,-38.85,-39.03,0,*61
1484255102.59,54160,5.75,72096.8,-13.33,-39.03,-39.23,0,*66
1484255103.85,54161,5.81,72098.8,-13.33,-39.23,-39.35,0,*62
1484255105.14,54162,5.75,72094.3,-13.33,-39.03,-39.23,0,*64
1484255106.41,54163,5.81,72098.0,-13.35,-39.15,-39.23,0,*64
1484255107.68,54164,5.75,72092.5,-13.35,-39.15,-39.23,0,*63
1484255108.95,54165,5.75,72092.3,-13.35,-39.15,-39.23,0,*62
1484255110.18,54166,5.75,72090.8,-13.35,-39.03,-39.35,0,*61
1484255111.45,54167,5.81,72090.8,-13.35,-39.03,-39.15,0,*62
1484255112.71,54168,5.81,72086.8,-13.37,-39.09,-39.41,0,*64
1484255113.98,54169,5.75,72084.3,-13.37,-39.09,-39.29,0,*6B
1484255115.27,54170,5.81,72088.0,-13.37,-39.03,-39.23,0,*63
1484255116.55,54171,5.81,72088.8,-13.37,-39.23,-39.29,0,*6A
1484255117.85,54172,5.75,72090.0,-13.37,-39.41,-39.59,0,*6A
1484255119.14,54173,5.75,72090.5,-13.37,-39.41,-39.41,0,*62
1484255120.39,54174,5.75,72092.0,-13.37,-39.23,-39.47,0,*67
1484255121.68,54175,5.75,72092.0,-13.37,-39.23,-39.23,0,*64
1484255122.95,54176,5.75,72098.3,-13.37,-39.09,-39.29,0,*65
1484255124.21,54177,5.75,72096.5,-13.37,-39.09,-39.29,0,*64
1484255125.5,54178,5.81,72098.0,-13.37,-39.03,-39.23,0,*6B
1484255126.79,54179,5.81,72096.5,-13.37,-39.23,-39.29,0,*62
1484255128.05,54180,5.81,72098.0,-13.37,-39.09,-39.41,0,*62
1484255129.34,54181,5.75,72098.5,-13.37,-39.29,-39.41,0,*61
1484255130.6,54182,5.81,72098.8,-13.37,-39.09,-39.29,0,*6E
1484255131.88,54183,5.81,72094.0,-13.41,-39.09,-39.29,0,*6E
1484255133.13,54184,5.81,72096.0,-13.41,-39.29,-39.35,0,*66
1484255134.39,54185,5.75,72092.8,-13.41,-39.29,-39.35,0,*67
1484255135.68,54186,5.81,72094.8,-13.37,-39.23,-39.23,0,*68
1484255136.95,54187,5.75,72088.5,-13.41,-39.09,-39.29,0,*6A
1484255138.24,54188,5.81,72090.0,-13.37,-39.03,-39.23,0,*64
1484255139.53,54189,5.75,72084.0,-13.41,-39.15,-39.29,0,*69
1484255140.79,54190,5.75,72084.3,-13.41,-39.09,-39.09,0,*6E
1484255142.04,54191,5.81,72090.5,-13.41,-39.09,-39.09,0,*6F
1484255143.34,54192,5.81,72098.0,-13.41,-39.15,-39.15,0,*6C
1484255144.6,54193,5.81,72098.3,-13.41,-38.91,-38.97,0,*6B
1484255145.9,54194,5.81,72102.5,-13.41,-38.79,-38.79,0,*6A
1484255147.14,54195,5.81,72084.8,-13.41,-38.17,-38.17,0,*6B
1484255148.44,54196,5.81,72096.0,-13.41,-37.63,-37.63,0,*68
1484255149.71,54197,5.75,72094.3,-13.41,-37.51,-37.57,0,*6F
1484255150.95,54198,5.75,72076.0,-13.37,-37.45,-37.45,0,*67
1484255152.18,54199,5.81,72064.0,-13.37,-37.27,-37.45,0,*62
1484255153.42,54200,5.75,72056.5,-13.37,-37.15,-37.33,0,*61
1484255154.69,54201,5.81,72070.0,-13.35,-37.09,-37.21,0,*6C
1484255155.96,54202,5.75,72080.3,-13.35,-37.09,-37.21,0,*6F
1484255157.18,54203,5.81,72086.0,-13.35,-37.03,-37.03,0,*64
1484255158.42,54204,5.75,72094.8,-13.29,-36.97,-37.15,0,*65
1484255159.7,54205,5.81,72098.0,-13.33,-37.27,-37.39,0,*6B
1484255160.97,54206,5.75,72090.5,-13.29,-37.45,-37.63,0,*68
1484255162.26,54207,5.81,72086.5,-13.29,-37.63,-37.63,0,*6D
1484255163.48,54208,5.75,72086.3,-13.27,-37.45,-37.57,0,*6F
1484255164.73,54209,5.81,72086.5,-13.27,-37.57,-37.63,0,*6A
1484255166.01,54210,5.81,72088.8,-13.27,-37.93,-37.99,0,*6F
1484255167.28,54211,5.75,72084.0,-13.27,-37.99,-38.11,0,*6B
1484255168.52,54212,5.81,72086.5,-13.27,-37.99,-38.17,0,*6E
1484255169.81,54213,5.75,72074.0,-13.27,-37.81,-37.99,0,*6F
1484255171.1,54214,5.81,72072.3,-13.25,-37.81,-37.93,0,*60
1484255172.4,54215,5.75,72078.5,-13.25,-37.93,-37.81,0,*61
1484255173.69,54216,5.75,72084.8,-13.25,-37.93,-38.11,0,*64
1484255174.99,54217,5.81,72088.0,-13.25,-37.93,-37.99,0,*6A
1484255176.25,54218,5.81,72084.3,-13.25,-38.35,-38.49,0,*64
1484255177.53,54219,5.75,72090.0,-13.27,-38.49,-38.49,0,*6C
1484255178.83,54220,5.81,72096.8,-13.25,-38.29,-38.49,0,*62
1484255180.1,54221,5.81,72098.0,-13.25,-38.49,-38.55,0,*68
1484255181.37,54222,5.81,72098.3,-13.25,-38.49,-38.61,0,*6C
1484255182.62,54223,5.75,72098.0,-13.27,-38.35,-38.49,0,*6E
1484255183.89,54224,5.81,72094.8,-13.25,-38.11,-38.35,0,*66
1484255185.11,54225,5.81,72090.5,-13.27,-38.17,-38.35,0,*63
1484255186.38,54226,5.81,72090.5,-13.27,-38.29,-38.79,0,*65
1484255187.66,54227,5.75,72094.5,-13.27,-37.99,-38.29,0,*65
1484255188.93,54228,5.81,72088.5,-13.25,-37.15,-37.21,0,*6B
1484255190.17,54229,5.75,72086.5,-13.25,-37.33,-37.57,0,*6F
1484255191.41,54230,5.75,72078.0,-13.25,-37.33,-37.45,0,*64
1484255192.62,54231,5.75,72072.5,-13.23,-37.27,-37.27,0,*62
1484255193.89,54232,5.75,72068.8,-13.21,-36.91,-37.15,0,*6E
1484255195.13,54233,5.81,72072.5,-13.21,-37.27,-37.27,0,*62
1484255196.41,54234,5.75,72068.0,-13.21,-37.39,-37.69,0,*60
1484255197.68,54235,5.81,72072.3,-13.19,-37.51,-37.69,0,*64
1484255198.89,54236,5.75,72068.0,-13.15,-37.75,-37.75,0,*60
1484255200.15,54237,5.75,72080.0,-13.19,-37.81,-37.87,0,*6B
1484255201.39,54238,5.81,72080.8,-13.19,-37.99,-38.17,0,*6B
1484255202.66,54239,5.81,72082.0,-13.19,-37.99,-38.23,0,*6D
1484255203.91,54240,5.81,72080.8,-13.15,-37.99,-38.17,0,*68
1484255205.12,54241,5.81,72074.5,-13.19,-38.17,-38.17,0,*6C
1484255206.34,54242,5.81,72074.5,-13.19,-38.05,-38.35,0,*6C
1484255207.59,54243,5.81,72068.8,-13.15,-38.29,-38.61,0,*6E
1484255208.81,54244,5.81,72080.8,-13.15,-38.35,-38.43,0,*64
1484255210.05,54245,5.81,72084.0,-13.15,-38.29,-38.61,0,*68
1484255211.3,54246,5.75,72088.3,-13.19,-38.43,-38.49,0,*61
1484255212.54,54247,5.75,72094.8,-13.15,-38.35,-38.49,0,*6D
1484255213.76,54248,5.81,72094.3,-13.19,-38.35,-38.43,0,*64
1484255215.0,54249,5.81,72090.5,-13.19,-38.35,-38.67,0,*63
1484255216.24,54250,5.81,72086.5,-13.19,-38.43,-38.67,0,*6A
1484255217.51,54251,5.81,72084.8,-13.19,-38.49,-38.79,0,*6E
1484255218.76,54252,5.81,72090.0,-13.15,-38.55,-38.79,0,*6C
1484255219.97,54253,5.81,72088.5,-13.19,-38.55,-38.73,0,*6B
1484255221.21,54254,5.81,72088.5,-13.19,-38.43,-38.49,0,*62
1484255222.49,54255,5.81,72096.0,-13.19,-38.49,-38.79,0,*6A
1484255223.76,54256,5.81,72096.5,-13.19,-38.49,-38.79,0,*69
1484255224.97,54257,5.81,72092.0,-13.15,-38.35,-38.61,0,*66
1484255226.24,54258,5.75,72090.0,-13.21,-38.55,-38.91,0,*67
1484255227.46,54259,5.81,72092.5,-13.19,-38.61,-38.85,0,*6F
1484255228.72,54260,5.81,72090.3,-13.19,-38.67,-39.03,0,*6C
1484255229.96,54261,5.81,72086.0,-13.19,-38.61,-39.03,0,*6B
1484255231.2,54262,5.81,72088.5,-13.19,-38.67,-38.97,0,*62
1484255232.48,54263,5.81,72082.8,-13.21,-39.03,-39.29,0,*6F
1484255233.75,54264,5.81,72082.5,-13.21,-39.09,-39.29,0,*62
1484255235.04,54265,5.75,72082.8,-13.21,-39.03,-39.23,0,*63
1484255236.3,54266,5.75,72080.3,-13.23,-38.91,-39.23,0,*68
1484255237.54,54267,5.81,72086.0,-13.23,-38.73,-39.03,0,*67
1484255238.8,54268,5.81,72088.0,-13.23,-38.67,-38.91,0,*67
1484255240.06,54269,5.75,72076.8,-13.23,-38.67,-38.91,0,*66
1484255241.3,54270,5.81,72078.5,-13.23,-38.73,-39.03,0,*61
1484255242.54,54271,5.81,72086.8,-13.23,-38.73,-39.03,0,*60
1484255243.78,54272,5.81,72090.5,-13.23,-38.85,-39.03,0,*6A
1484255245.03,54273,5.81,72088.5,-13.23,-38.85,-38.91,0,*61
1484255246.29,54274,5.81,72080.3,-13.23,-38.91,-39.03,0,*69
1484255247.56,54275,5.81,72076.3,-13.23,-38.91,-38.91,0,*62
1484255248.82,54276,5.81,72076.0,-13.21,-39.03,-39.09,0,*69
1484255250.05,54277,5.81,72080.0,-13.23,-39.09,-39.09,0,*60
1484255251.29,54278,5.81,72076.8,-13.23,-39.09,-39.29,0,*6D
1484255252.55,54279,5.81,72070.0,-13.23,-38.91,-39.23,0,*66
1484255253.8,54280,5.81,72082.5,-13.23,-38.85,-39.03,0,*67
1484255255.04,54281,5.81,72076.5,-13.23,-38.85,-38.91,0,*6C
1484255256.28,54282,5.81,72076.0,-13.25,-38.97,-39.09,0,*6A
1484255257.53,54283,5.81,72080.3,-13.25,-39.09,-39.09,0,*6D
1484255258.79,54284,5.81,72078.3,-13.25,-38.91,-38.97,0,*6C
1484255260.06,54285,5.75,72068.8,-13.25,-38.91,-39.09,0,*6B
1484255261.33,54286,5.81,72068.3,-13.25,-38.79,-38.97,0,*68
1484255262.57,54287,5.81,72076.0,-13.23,-38.73,-38.91,0,*63
1484255263.84,54288,5.81,72072.3,-13.25,-38.49,-38.55,0,*6B
1484255265.12,54289,5.81,72082.5,-13.25,-38.49,-38.55,0,*6A
1484255266.36,54290,5.81,72084.5,-13.25,-38.35,-38.55,0,*69
1484255267.63,54291,5.81,72086.8,-13.23,-38.29,-38.49,0,*6E
1484255268.87,54292,5.75,72086.8,-13.23,-38.67,-38.73,0,*6E
1484255270.13,54293,5.81,72090.5,-13.23,-38.67,-38.91,0,*63
1484255271.41,54294,5.81,72090.5,-13.25,-38.49,-38.55,0,*66
1484255272.65,54295,5.81,72086.8,-13.25,-38.17,-38.35,0,*6A
1484255273.92,54296,5.81,72092.8,-13.25,-37.63,-37.75,0,*6E
1484255275.14,54297,5.81,72076.8,-13.23,-37.57,-37.75,0,*6E
1484255276.4,54298,5.81,72068.3,-13.21,-37.57,-37.69,0,*6E
1484255277.64,54299,5.81,72064.3,-13.21,-37.33,-37.57,0,*60
1484255278.85,54300,5.75,72066.8,-13.19,-37.33,-37.33,0,*68
1484255280.14,54301,5.81,72076.5,-13.21,-37.39,-37.51,0,*6C
1484255281.41,54302,5.81,72066.0,-13.21,-37.87,-37.93,0,*64
1484255282.69,54303,5.81,72072.8,-13.19,-37.99,-38.23,0,*65
1484255283.91,54304,5.81,72074.5,-13.19,-38.43,-38.35,0,*6D
1484255285.13,54305,5.81,72080.0,-13.19,-38.61,-38.85,0,*67
1484255286.37,54306,5.81,72082.8,-13.19,-38.43,-38.79,0,*67
1484255287.59,54307,5.81,72086.0,-13.19,-38.61,-38.85,0,*65
1484255288.86,54308,5.81,72086.0,-13.19,-38.49,-38.79,0,*63
1484255290.13,54309,5.81,72086.8,-13.19,-38.67,-39.15,0,*65
1484255291.4,54310,5.81,72086.3,-13.19,-38.79,-39.15,0,*62
1484255292.63,54311,5.81,72086.8,-13.19,-38.67,-38.97,0,*67
1484255293.85,54312,5.81,72086.0,-13.15,-38.35,-38.61,0,*66
1484255295.09,54313,5.81,72090.5,-13.19,-38.35,-38.67,0,*6D
1484255296.33,54314,5.81,72084.0,-13.19,-38.67,-38.97,0,*62
1484255297.58,54315,5.81,72078.0,-13.21,-38.73,-39.03,0,*61
1484255298.87,54316,5.81,72080.8,-13.21,-38.91,-39.29,0,*66
1484255300.11,54317,5.81,72084.0,-13.21,-38.73,-39.09,0,*69
1484255301.38,54318,5.81,72088.5,-13.21,-38.85,-39.23,0,*67